Printer-friendly version

IAU Minor Planet Center

Minor Planet Center

MPEC 2007-R80 : 2007 RV17

The following Minor Planet Electronic Circular may be linked-to from your own Web pages, but must not otherwise be redistributed electronically.


Read MPEC 2007-R79 Read MPEC 2007-R81


M.P.E.C. 2007-R80                                Issued 2007 Sept. 14, 18:09 UT

     The Minor Planet Electronic Circulars contain information on unusual
         minor planets and routine data on comets.  They are published
   on behalf of Commission 20 of the International Astronomical Union by the
          Minor Planet Center, Smithsonian Astrophysical Observatory,
                          Cambridge, MA 02138, U.S.A.

             Prepared using the Tamkin Foundation Computer Network

                              MPC@CFA.HARVARD.EDU
          URL http://www.cfa.harvard.edu/iau/mpc.html  ISSN 1523-6714

                                   2007 RV17

Observations:
     K07R17V  C2007 09 12.39204 01 54 17.31 -07 32 20.9          19.6 V ER080703
     K07R17V  C2007 09 12.39858 01 54 17.85 -07 32 33.7          19.3 V ER080703
     K07R17V  C2007 09 12.40514 01 54 18.54 -07 32 45.5          18.9 V ER080703
     K07R17V  C2007 09 12.41165 01 54 19.18 -07 32 56.1          19.2 V ER080703
     K07R17V  C2007 09 12.43202 01 54 21.06 -07 33 34.0          19.5 V ER080703
     K07R17V  C2007 09 12.44044 01 54 21.85 -07 33 49.6          19.4 V ER080703
     K07R17V  C2007 09 12.45738 01 54 23.43 -07 34 19.6          19.4 V ER080703
     K07R17V  C2007 09 12.47581 01 54 25.16 -07 34 54.3          19.1 V ER080703
     K07R17V  C2007 09 12.48245 01 54 25.81 -07 35 07.1          18.9 V ER080703
     K07R17V  C2007 09 12.48897 01 54 26.42 -07 35 18.5          18.9 V ER080703
     K07R17V* C2007 09 13.42486 01 56 02.14 -08 04 37.5          19.3 V ER080G96
     K07R17V  C2007 09 13.43088 01 56 02.76 -08 04 49.2          19.3 V ER080G96
     K07R17V  C2007 09 13.43683 01 56 03.30 -08 05 00.7          18.6 V ER080G96
     K07R17V  C2007 09 13.44280 01 56 03.87 -08 05 12.0          19.3 V ER080G96
     K07R17V  C2007 09 13.98500 01 57 00.74 -08 22 54.4          18.8 V ER080595
     K07R17V  C2007 09 13.99460 01 57 01.69 -08 23 13.6          19.3 V ER080595
     K07R17V  C2007 09 14.10445 01 57 12.60 -08 26 53.7                 ER080118
     K07R17V  C2007 09 14.10781 01 57 12.94 -08 27 00.1                 ER080118
     K07R17V  C2007 09 14.22295 01 57 25.33 -08 30 29.6          19.0 R ER080I77
     K07R17V  C2007 09 14.22399 01 57 25.45 -08 30 32.0          19.4 R ER080I77
     K07R17V  C2007 09 14.22553 01 57 25.59 -08 30 35.4          19.3 R ER080I77
     K07R17V  C2007 09 14.29687 01 57 33.81 -08 33 14.8          19.2 R ER080651
     K07R17V  C2007 09 14.29797 01 57 33.90 -08 33 17.3          19.0 R ER080651
     K07R17V  C2007 09 14.29906 01 57 34.04 -08 33 19.0          19.0 R ER080651
     K07R17V fC2007 09 14.37872 01 57 41.81 -08 36 00.2                 ER080711
     K07R17V  C2007 09 14.38339 01 57 42.32 -08 36 10.4          18.4 R ER080711
     K07R17V 5C2007 09 14.38692 01 57 42.88 -08 36 18.1          19.4 R ER080673
     K07R17V  C2007 09 14.38809 01 57 42.72 -08 36 19.7                 ER080711
     K07R17V 5C2007 09 14.39236 01 57 43.40 -08 36 29.2                 ER080673
     K07R17V 5C2007 09 14.39653 01 57 43.81 -08 36 37.6                 ER080673
     K07R17V 5C2007 09 14.40104 01 57 44.25 -08 36 46.8                 ER080673
     K07R17V  C2007 09 14.40339 01 57 44.31 -08 36 50.2          19.0 V ER080703
     K07R17V  C2007 09 14.41244 01 57 45.28 -08 37 08.9          19.4 V ER080703
     K07R17V  C2007 09 14.42149 01 57 46.18 -08 37 27.7          19.0 V ER080703
     K07R17V  C2007 09 14.43057 01 57 47.08 -08 37 45.8          19.3 V ER080703
     K07R17V  C2007 09 14.43978 01 57 47.98 -08 38 04.6          19.3 V ER080703
     K07R17V  C2007 09 14.44741 01 57 48.74 -08 38 20.2          19.1 V ER080703
     K07R17V  C2007 09 14.45513 01 57 49.46 -08 38 35.7          19.2 V ER080703
     K07R17V  C2007 09 14.46277 01 57 50.25 -08 38 51.5          19.3 V ER080703

Observer details:
118 Modra.  Observers S. Gajdos, J. Vilagi.  0.6-m f/5.5 reflector + CCD.
595 Farra d'Isonzo.  Observers G. Lombardi, E. Pettarin.  Measurer E. Pettarin.
    0.40-m f/4.5 reflector + CCD.
651 Grasslands Observatory, Tucson.  Observer J. E. McGaha.  0.62-m f/5.1
    Newtonian reflector + CCD.
673 Table Mountain Observatory, Wrightwood.  Observer J. Young.  0.61-m f/16
    Cassegrain + CCD.
703 Catalina Sky Survey.  Observers R. E. Hill, R. A. Kowalski.  Measurers
    E. C. Beshore, A. Boattini, G. J. Garradd, A. R. Gibbs, A. D. Grauer,
    R. E. Hill, R. A. Kowalski, S. M. Larson, R. H. McNaught.  0.68-m Schmidt
    + CCD.
711 McDonald Observatory.  Observer J. G. Ries.  0.76-m reflector + CCD
    + prime-focus corrector.
G96 Mt. Lemmon Survey.  Observer E. C. Beshore.  Measurers E. C. Beshore,
    A. Boattini, G. J. Garradd, A. R. Gibbs, A. D. Grauer, R. E. Hill,
    R. A. Kowalski, S. M. Larson, R. H. McNaught.  1.5-m reflector + CCD.
I77 CEAMIG-REA Observatory, Belo Horizonte.  Observers C. Jacques, E. Pimentel.
    Measurer C. Jacques.  0.30-m f/3.0 Schmidt-Cassegrain + CCD.

Orbital elements:
2007 RV17                                                Earth MOID = 0.1192 AU
Epoch 2007 Oct. 27.0 TT = JDT 2454400.5                 MPC
M 346.49527              (2000.0)            P               Q
n   0.33972734     Peri.  321.86749     -0.32307531     -0.94064192
a   2.0341472      Node   146.61124     +0.90807092     -0.33906860
e   0.6721874      Incl.   10.89294     +0.26651369     +0.01500917
P   2.90           H   19.0           G   0.15           U   9
Residuals in seconds of arc
070912 703  0.3+  0.3+    070913 G96  0.2-  0.2-    070914 673  0.2+  0.2-
070912 703  0.8-  0.5-    070913 595  0.9-  0.4+    070914 711  0.2-  0.3-
070912 703  0.3+  0.4-    070913 595  1.0-  0.3+    070914 673  0.1-  0.2-
070912 703  0.7+  0.9+    070914 118  0.0   0.7-    070914 673  0.2-  0.2-
070912 703  0.2+  0.2+    070914 118  0.1+  0.4-    070914 673  0.3-  0.2-
070912 703  0.1+  0.0     070914 I77  0.2+  0.8+    070914 703  0.9-  0.7+
070912 703  0.1-  1.0+    070914 I77  0.5+  0.5+    070914 703  0.3+  0.3+
070912 703  0.3-  0.1-    070914 I77  0.3+  0.2+    070914 703  0.4+  0.1-
070912 703  0.0   0.7-    070914 651  0.0   0.0     070914 703  0.4+  0.2+
070912 703  0.1-  0.2-    070914 651  0.3-  0.3-    070914 703  0.2+  0.1+
070913 G96  0.2-  0.2-    070914 651  0.1+  0.2+    070914 703  0.3+  0.0
070913 G96  0.4+  0.3-    070914 711  0.0   0.2+    070914 703  0.3-  0.1+
070913 G96  0.1-  0.4-    070914 711  0.8+  0.5-    070914 703  0.1+  0.2-

Ephemeris:
2007 RV17                a,e,i = 2.03, 0.67, 11                  q = 0.6668
Date    TT    R. A. (2000) Decl.     Delta      r     Elong.  Phase     V
2007 09 07    01 45.73   -05 09.2    0.550    1.468   138.9    26.8    19.7
2007 09 17    02 02.48   -10 10.6    0.420    1.364   143.0    26.3    19.0
2007 09 27    02 25.89   -18 46.3    0.307    1.258   141.5    29.7    18.2
2007 10 07    03 09.40   -33 52.5    0.218    1.149   128.7    42.8    17.7
2007 10 17    05 13.41   -56 05.0    0.170    1.040    99.8    70.9    17.7
2007 10 27    09 51.26   -58 21.2    0.184    0.932    65.4   104.3    19.0

Timothy B. Spahr             (C) Copyright 2007 MPC           M.P.E.C. 2007-R80

Read MPEC 2007-R79 Read MPEC 2007-R81


Our Web policy. Index to the CBAT/MPC/ICQ pages.


Valid HTML 4.01!